Terminal Aerodrome Forecast
Issued by NWS Charleston, WV

Home | Current Version | Previous Version | Text Only | Print | Product List | Glossary On
Versions: 1 2 3 4 5 6 7 8 9 10 11 12 13 14 15 16 17 18 19 20 21 22 23 24
000
FTUS41 KRLX 131720
TAFHTS
TAF
KHTS 131720Z 1318/1418 19010G15KT P6SM BKN080
     FM140200 23010KT P6SM BKN050
     FM140800 27009G18KT P6SM BKN030
     FM140900 27009G19KT P6SM BKN020
     FM141300 31005KT P6SM BKN030=

USA.gov is the U.S. government's official web portal to all federal, state and local government web resources and services.